Weather observations for the past three days for
Boise Air Terminal
Imperial (Metric)
Date Time (mdt) Wind (mph) Vis. (mi.) Weather Sky Cond. Temperature (ºF) Relative Humidity Wind Chill (°F) Heat Index (°F) Pressure Precipitation (in)
Air Dwpt 6 hour altimeter (in) sea level (mb) 1 hr 3 hr 6 hr
Max. Min.
21 06:53 SE 10 10.00 Fair CLR 75 42.1 31% 77 30.04 1013.5
21 05:53 SE 10 10.00 Fair CLR 75 43 82.9 73 32% 77 30.04 1013.2
21 04:53 S 7 10.00 Fair CLR 75.9 42.1 30% 77 30.02 1012.7
21 03:53 Calm 10.00 Fair CLR 80.1 42.1 26% 79 30.01 1012.2
21 02:53 Calm 10.00 Fair CLR 79 42.1 27% 78 30 1011.9
21 01:53 SE 5 10.00 Fair CLR 78.1 45 31% 78 29.99 1011.9
21 00:53 SE 6 10.00 Fair CLR 80.1 53.1 39% 80 30 1012.2
20 23:53 Calm 10.00 Fair CLR 82 55.9 102 82 41% 82 30 1012.3
20 22:53 S 3 10.00 Fair CLR 84 57 40% 83 30 1012.2
20 21:53 W 5 10.00 Fair CLR 91.9 51.1 25% 89 30 1012.0
20 20:53 NW 5 10.00 Fair CLR 93.9 53.1 25% 91 30 1012.1
20 19:53 NW 8 10.00 Fair CLR 99 52 21% 96 29.99 1011.9
20 18:53 W 9 10.00 Fair CLR 100.9 48.9 17% 98 29.99 1012.0
20 17:53 NW 7 10.00 Fair CLR 102 48 102.9 87.1 16% 99 30.01 1012.3
20 16:53 NW 8 10.00 Fair CLR 100.9 50 18% 98 30.03 1013.3
20 15:53 W 7 10.00 Fair CLR 100 48 17% 97 30.06 1014.1
20 14:53 Vrbl 6 10.00 Fair CLR 96.1 50 21% 93 30.08 1014.9
20 13:53 W 5 10.00 Fair CLR 93.9 51.1 23% 91 30.1 1015.6
20 12:53 W 6 10.00 Fair CLR 91.9 50 24% 89 30.11 1016.2
20 11:53 Vrbl 3 10.00 Fair CLR 87.1 48 88 68 26% 84 30.12 1016.5
20 10:53 W 5 10.00 Fair CLR 84.9 45 25% 82 30.14 1016.9
20 09:53 Vrbl 3 10.00 Fair CLR 80.1 43 27% 79 30.13 1016.8
20 08:53 SW 3 10.00 Fair CLR 75.9 39.9 27% 77 30.13 1016.6
20 07:53 SW 6 10.00 Fair CLR 72 42.1 34% 30.12 1016.2
20 06:53 Calm 10.00 Fair CLR 68 42.1 39% 30.11 1015.9
20 05:53 S 3 10.00 Fair CLR 71.1 42.1 82.9 69.1 35% 30.09 1015.3
20 04:53 S 3 10.00 Fair CLR 71.1 43 36% 30.08 1015.0
20 03:53 S 5 10.00 Fair CLR 72 45 38% 30.07 1014.6
20 02:53 Calm 10.00 Fair CLR 73.9 46.9 38% 30.07 1014.5
20 01:53 SW 3 10.00 Fair CLR 75 50 42% 78 30.07 1014.5
20 00:53 SW 6 10.00 Fair CLR 78.1 50 37% 79 30.05 1014.1
19 23:53 Calm 10.00 Fair CLR 82 48 102.9 82 31% 81 30.04 1013.6
19 22:53 W 3 10.00 Fair CLR 86 48 27% 83 30.03 1013.2
19 21:53 Calm 10.00 Fair CLR 91.9 46 21% 88 30.01 1012.5
19 20:53 NW 7 10.00 Fair CLR 95 44.1 17% 91 30 1011.9
19 19:53 NW 9 10.00 Fair CLR 100 43 14% 96 29.99 1011.9
19 18:53 NW 13 10.00 Fair CLR 100.9 42.1 13% 96 30 1012.0
19 17:53 NW 12 G 21 10.00 Fair CLR 102 42.1 102 87.1 13% 97 30.01 1012.4
19 16:53 NW 12 10.00 Fair CLR 102 46 15% 98 30.03 1012.9
19 15:53 NW 6 10.00 Fair CLR 99 45 16% 95 30.05 1013.7
19 14:53 NW 7 10.00 Fair CLR 97 46 17% 93 30.07 1014.4
19 13:53 NW 7 10.00 Fair CLR 93 48 21% 90 30.08 1015.0
19 12:53 W 6 10.00 Fair CLR 91 46 21% 87 30.09 1015.4
19 11:53 Calm 10.00 Fair CLR 87.1 46.9 88 70 25% 84 30.1 1015.6
19 10:53 SW 7 10.00 Fair CLR 84 48 29% 82 30.1 1015.8
19 09:53 W 6 10.00 Fair CLR 81 48.9 33% 80 30.1 1015.4
19 08:53 S 5 10.00 Fair CLR 80.1 41 25% 79 30.09 1015.0
19 07:53 SE 9 10.00 Fair CLR 73.9 41 31% 30.08 1015.0
19 06:53 S 3 10.00 Fair CLR 71.1 46.9 42% 30.06 1014.2
19 05:53 S 3 10.00 Fair CLR 72 46.9 84 70 41% 30.04 1013.6
19 04:53 S 5 10.00 Fair CLR 71.1 41 34% 30.03 1013.1
19 03:53 SE 6 10.00 Fair CLR 75 41 29% 77 30.01 1012.4
19 02:53 SE 6 10.00 Fair CLR 75.9 41 29% 77 30.01 1012.5
19 01:53 SE 3 10.00 Fair CLR 78.1 42.1 28% 78 30.01 1012.5
19 00:53 E 10 10.00 Fair CLR 81 42.1 25% 79 30 1012.1
18 23:53 E 7 9.00 Fair CLR 84 39.9 102 84 21% 81 30 1012.0
18 22:53 S 6 10.00 Fair CLR 84.9 41 21% 82 29.99 1011.7
18 21:53 S 5 10.00 Fair CLR 91.9 39 16% 88 29.97 1010.9
18 20:53 N 6 7.00 Fair CLR 95 39 14% 91 29.95 1010.5
18 19:53 N 7 7.00 Mostly Cloudy BKN055 97 39 13% 92 29.96 1010.7
18 18:53 NW 12 6.00 A Few Clouds with Haze FEW045 100 36 11% 95 29.96 1010.7
18 17:53 N 10 7.00 Fair CLR 100.9 34 102 89.1 10% 96 29.97 1011.0
18 16:53 NW 9 10.00 Fair CLR 100.9 35.1 10% 96 29.99 1011.4
18 15:53 NW 12 10.00 Fair CLR 100 43 14% 96 30 1011.8
18 14:53 NW 9 10.00 Fair CLR 99 48 18% 95 30.02 1012.5
18 13:53 W 7 10.00 Fair CLR 95 50 22% 92 30.04 1013.4
18 12:53 W 5 10.00 Fair CLR 93 50 23% 90 30.05 1013.7
18 11:53 NW 7 10.00 Fair CLR 90 51.1 90 72 26% 87 30.06 1013.9
18 10:53 Vrbl 6 10.00 Fair CLR 86 50 29% 84 30.07 1014.5
18 09:53 N 5 10.00 Fair CLR 82 51.1 34% 81 30.07 1014.6
18 08:53 NE 6 10.00 Fair CLR 78.1 50 37% 79 30.07 1014.5
18 07:53 Calm 10.00 Fair CLR 73.9 50 43% 30.05 1013.7
Date Time (mdt) Wind (mph) Vis. (mi.) Weather Sky Cond. Air Dwpt Max. Min. Relative Humidity Wind Chill (°F) Heat Index (°F) altimeter (in) sea level (mb) 1 hr 3 hr 6 hr
6 hour
Temperature (ºF) Pressure Precipitation (in)